Location: Dana
(41.8364°N, 106.7042°W)
Time: 01:45:23
(UTC+00:00)

Altair - Pass Details

Date: 13 May 2026
Orbit: 1501 x 1682 km, 47.2° (Epoch: 6 June)

Event Time Altitude Azimuth Distance (km) Brightness Sun altitude
Rises 13:33:58 0° 249° (WSW) 4,850 9.5 17.8°
Reaches altitude 10° 13:37:04 10° 251° (WSW) 3,885 9.1 18.4°
Maximum altitude 13:47:08 81° 339° (NNW) 1,696 8.1 20.2°
Drops below altitude 10° 13:57:22 10° 67° (ENE) 3,947 11.3 22.1°
Sets 14:00:33 0° 69° (ENE) 4,930 11.4 22.7°
